Regional Weather Roundup
Issued by NWS

Home | Current Version | Previous Version | Text Only | Print | Product List | Glossary On
Versions: 1 2 3 4 5 6 7 8 9 10 11 12 13 14 15 16 17 18 19 20 21 22 23 24 25 26 27 28 29 30 31 32 33 34 35 36 37 38 39 40 41 42 43 44 45 46 47 48 49 50
000
ASCA44 KEWX 062320
RWRMX

LATIN AMERICA AND CARIBBEAN REGIONAL WEATHER ROUNDUP
NATIONAL WEATHER SERVICE AUSTIN/SAN ANTONIO TX
600 PM CDT FRI MAY 06 2016

NOTE: "FAIR" INDICATED FEW OR NO CLOUDS BELOW 12,000 FEET WITH NO
SIGNIFICANT WEATHER AND/OR OBSTRUCTIONS TO VISIBILITY.

BAJA CALIFORNIA

CITY           SKY/WX    TMP DP  RH WIND       PRES   REMARKS
LORETO         SUNNY     77  64  65 NE14      29.86F
LA PAZ         MOSUNNY   82  52  34 N9        29.88F
MEXICALI       PTSUNNY   70  48  46 NE8       29.83F
S.J. DEL CABO  SUNNY     84  64  51 SE16      29.86F
TIJUANA        PTSUNNY   64  48  55 W9        29.92F

NORTHWESTERN MEXICO

CITY           SKY/WX    TMP DP  RH WIND       PRES   REMARKS
CULIACAN       PTSUNNY   88  64  45 S7        29.86F
DURANGO        CLOUDY    86  27  11 SE5       30.09F
GUAYMAS        SUNNY     81  46  30 W14       29.81F
HERMOSILLO     SUNNY     86  39  19 S9        29.87F
CD. JUAREZ       N/A    N/A N/A N/A MISG        N/A
LOS MOCHIS     MOSUNNY   84  48  28 W9        29.86F
OBREGON        MOSUNNY   88  39  18 W9        29.82F

NORTHEASTERN MEXICO

CITY           SKY/WX    TMP DP  RH WIND       PRES   REMARKS
CHIHUAHUA      PTSUNNY   95  36  12 SW24      29.87F HX  90
MATAMOROS      SUNNY     86  55  35 E10       29.98S
MONCLOVA         N/A    N/A N/A N/A MISG        N/A
MONTERREY      MOSUNNY   91  43  18 SE13      29.91F
NUEVO LAREDO   SUNNY     95  39  14 SE10      29.90F HX  91
PIEDRAS NEGRAS MOSUNNY   91  55  29 SE12      29.92F
REYNOSA        MOSUNNY   86  50  28 SE12      29.95F
SALTILLO       MOSUNNY   81  57  44 N21       30.12F
TORREON        PTSUNNY   95  39  14 E6        29.90F HX  91
CD. VICTORIA   SUNNY     95  45  17 SE5       29.92F HX  91

WESTERN MEXICO

CITY           SKY/WX    TMP DP  RH WIND       PRES   REMARKS
AGUASCALIENTES MOSUNNY   90  23   9 W9        30.11F
COLIMA           N/A    N/A N/A N/A MISG        N/A
DEL BAJIO      PTSUNNY   79  46  31 NE13      30.18S
GUADALAJARA    PTSUNNY   91  27   9 CALM      30.02F
MANZANILLO     CLOUDY    79  73  83 W14       29.80
MAZATLAN       PTSUNNY   82  72  69 W6        29.86F
P. VALLARTA    PTSUNNY   82  75  78 SW9       29.84F
URUAPAN        MOSUNNY   79  61  53 CALM      30.10F
ZACATECAS      PTSUNNY   82  32  16 SW12      30.18F

CENTRAL MEXICO

CITY           SKY/WX    TMP DP  RH WIND       PRES   REMARKS
CUERNAVACA     PTSUNNY   86  52  30 CALM      30.00F
MEXICO CITY    PTSUNNY   81  32  17 NE12      30.22F
MORELIA        PTSUNNY   88  37  16 N5        30.10F
POZA RICA      SUNNY     84  64  51 E9        29.98R
PUEBLA         PTSUNNY   73  54  49 S15       30.23R
QUERETARO      PTSUNNY   84  45  24 NE12      30.19S
S. LUIS POTOSI SUNNY     82  36  18 NE17      30.15F
TAMPICO        SUNNY     81  64  57 SE14      29.95F
TOLUCA         PTSUNNY   70  54  56 S16       30.31S HAZE

SOUTHERN MEXICO

CITY           SKY/WX    TMP DP  RH WIND       PRES   REMARKS
ACAPULCO       PTSUNNY   82  77  83 W9        29.82S HX  91
B. DE HUATULCO PTSUNNY   84  75  74 SW9       29.89F HX  92
OAXACA         PTSUNNY   86  52  30 E15       30.06F
P. ESCONDIDO   PTSUNNY   86  79  79 W6        29.93F HX  99
VERACRUZ       PTSUNNY   79  66  65 E10       30.00R
ZIHUATANEJO    MOSUNNY   86  73  66 SW6       29.82S HX  93

YUCATAN PENINSULA

CITY           SKY/WX    TMP DP  RH WIND       PRES   REMARKS
CAMPECHE       SUNNY     81  64  57 NW25      29.92F
CANCUN         SUNNY     84  54  34 N7        29.92S
CHETUMAL       PTSUNNY   86  72  62 SE6       29.91F HX  92
CD. DEL CARMEN SUNNY     81  61  50 N12       29.96F
COZUMEL        MOSUNNY   79  64  61 NE12      29.93S
MERIDA         MOSUNNY   84  63  48 NW5       29.96R
MINATITLAN     MOSUNNY   81  68  65 CALM      29.92S
TAPACHULA      PTSUNNY   90  79  70 W12       29.76F HX 105
TUX. GUTIERREZ SUNNY     84  59  42 NW28      29.91S
VILLAHERMOSA   SUNNY     84  64  51 N14       29.97S

CENTRAL AMERICA

CITY           SKY/WX    TMP DP  RH WIND       PRES   REMARKS
BELIZE CITY    MOSUNNY   84  72  65 E7        29.93F
MANAGUA        PTCLDY    81  73  78 NW7       29.77S THUNDER

CARIBBEAN

CITY           SKY/WX    TMP DP  RH WIND       PRES   REMARKS
ARUBA          PTCLDY    84  77  79 E17       29.74R HX  94
CURACAO        PTCLDY    84  77  79 E13       29.77R HX  94
KINGSTON       MOCLDY    84  77  79 SW9       29.80R HX  94
NASSAU         PTCLDY    77  63  61 W7        29.87R
SAN JUAN       MOCLDY    84  73  70 S10       29.90R HX  91
SANTO DOMINGO  MOCLDY    81  73  78 S6        29.83S
ST. CROIX      PTCLDY    82  73  74 SE10      29.93
ST. KITTS      PTCLDY    81  75  83 E10       29.94R
ST. MAARTEN    PTCLDY    82  77  83 SE12      29.94R HX  91
ST. THOMAS     CLOUDY    84  75  74 E14       29.91  HX  92

$$





USA.gov is the U.S. government's official web portal to all federal, state and local government web resources and services.